Location: Ahausen
(50.4985°N, 8.2722°E)
Time: 10:43:14
(UTC+00:00)

JY1SAT - Pass Details

Date: 06 July 2022
Orbit: 564 x 586 km, 97.6° (Epoch: 10 August)

Event Time Altitude Azimuth Distance (km) Brightness Sun altitude
Exits shadow 22:08:53 - 221° (SW) 2,422 ? -14.6°
Reaches altitude 10° 22:10:49 10° 240° (WSW) 1,914 ? -14.7°
Maximum altitude 22:13:00 14° 272° (W) 1,672 ? -14.8°
Drops below altitude 10° 22:15:12 10° 304° (NW) 1,919 ? -15.0°
Sets 22:18:21 0° 330° (NNW) 2,822 ? -15.1°
